Location: Worth Mountain WMA
(34.9569°N, 81.4819°W)
Time: 08:08:25
(UTC-04:00)

Amateur Radio Satellites - All Passes

Search period start: 30 June 2016 07:38
Search period end: 01 July 2016 07:38
Location: Worth Mountain WMA, 34.9569°N, 81.4819°W

Satellite Date Start Highest point End Downlink Frequencies (MHz)
Time Altitude Azimuth
DANDE 30 Jun 07:48:07 07:55:34 37° 90° (E) 08:02:36 436.750
HORYU 2 30 Jun 07:50:12 07:51:05 11° 296° (WNW) 07:51:58 437.375
CUTE-I 30 Jun 07:52:47 07:58:11 88° 283° (WNW) 08:03:32 437.470
LilacSat-2 30 Jun 08:04:19 08:08:03 46° 285° (WNW) 08:11:47 437.200
AO-85 30 Jun 08:06:30 08:09:45 21° 251° (WSW) 08:12:49 145.980
NOAA 15 30 Jun 08:15:43 08:20:31 37° 290° (WNW) 08:25:17 137.62
CUTE 1.7 + AOD 2 30 Jun 08:19:52 08:21:12 11° 92° (E) 08:22:31 437.475
ISS 30 Jun 08:23:34 08:26:48 84° 142° (SE) 08:30:05 145.825
DOVE 4 30 Jun 08:27:08 08:31:33 70° 101° (E) 08:36:12 437.250
GONETS M04 30 Jun 08:27:28 08:32:23 17° 281° (W) 08:37:18
STRAND 1 30 Jun 08:27:30 08:32:25 47° 260° (W) 08:37:23 437.568
PRISM 30 Jun 08:41:04 08:44:47 32° 72° (ENE) 08:48:30 437.425
PHONESAT 2.4 30 Jun 08:43:30 08:46:12 28° 356° (N) 08:48:55 2401.200-2431.200
CUSAT 1 30 Jun 08:52:08 08:59:21 40° 282° (WNW) 09:05:34 437.405
BRITE-PL 30 Jun 08:52:17 08:53:25 11° 294° (WNW) 08:54:33 437.365/2234.400
HO-68 30 Jun 08:54:12 09:00:54 40° 99° (E) 09:07:32 435.675
AAUSAT CUBESAT 2 30 Jun 08:55:03 08:55:52 10° 92° (E) 08:56:40 437.432
CUBEBUG 2 30 Jun 08:57:24 08:59:01 12° 92° (E) 09:00:38 437.445
Cubesat XI-IV 30 Jun 09:00:03 09:04:00 21° 294° (WNW) 09:07:57 437.490
Cosmos 2499 30 Jun 09:07:16 09:10:00 12° 284° (WNW) 09:12:41 435.465 / 435.565
NOAA 18 30 Jun 09:09:24 09:12:58 18° 296° (WNW) 09:16:31 137.9125
CINEMA 3 30 Jun 09:09:42 09:14:16 58° 100° (E) 09:19:02 145.822/145.860
GOMX 1 30 Jun 09:15:29 09:17:51 15° 291° (WNW) 09:20:15 467.674
COMPASS 1 30 Jun 09:28:15 09:32:09 37° 98° (E) 09:35:59 437.405
DANDE 30 Jun 09:30:14 09:38:13 46° 283° (WNW) 09:45:40 436.750
FUNcube-1 30 Jun 09:32:33 09:33:56 11° 91° (E) 09:35:20 145.935
CANX-2 30 Jun 09:33:23 09:37:40 74° 283° (WNW) 09:41:53 2200.000
UWE-3 30 Jun 09:39:05 09:42:49 24° 96° (E) 09:46:35 435.000/436.395/437.385
CUTE 1.7 + AOD 2 30 Jun 09:53:08 09:57:16 48° 286° (WNW) 10:01:22 437.475
SEEDS 30 Jun 09:53:38 09:57:52 69° 283° (WNW) 10:02:01 437.485
AUBIESAT-1 30 Jun 09:57:10 10:00:25 22° 102° (ESE) 10:03:48 437.475
TIGRISAT 30 Jun 09:58:57 10:01:10 14° 66° (ENE) 10:03:25 435.000
ISS 30 Jun 10:02:05 10:03:38 13° 333° (NNW) 10:05:11 145.825
UNISAT 6 30 Jun 10:04:03 10:06:52 17° 67° (ENE) 10:09:43 437.425
PRISM 30 Jun 10:17:30 10:20:07 16° 265° (W) 10:22:46 437.425
PHONESAT 2.4 30 Jun 10:20:21 10:23:14 36° 12° (NNE) 10:26:07 2401.200-2431.200
DELFI C3 30 Jun 10:24:25 10:27:23 20° 95° (E) 10:30:21 145.870
AAUSAT CUBESAT 2 30 Jun 10:27:35 10:31:36 49° 286° (WNW) 10:35:35 437.432
CUBEBUG 2 30 Jun 10:31:18 10:35:53 58° 285° (WNW) 10:40:32 437.445
RS-15 30 Jun 10:32:35 10:40:51 24° 101° (E) 10:49:23 29.354- 29.394
M-CUBED/EXP-1 PRIME 30 Jun 10:37:25 10:41:26 87° 102° (ESE) 10:45:48 437.505
HO-68 30 Jun 10:42:04 10:48:26 35° 294° (WNW) 10:54:45 435.675
ANTELSAT 30 Jun 10:42:15 10:46:22 47° 74° (ENE) 10:50:35 437.575/2403.000
CINEMA 3 30 Jun 10:48:58 10:50:57 13° 293° (WNW) 10:52:58 145.822/145.860
ZACube-1 30 Jun 10:49:22 10:53:57 83° 283° (WNW) 10:58:33 437.345
Oscar 11 30 Jun 10:55:47 11:00:06 64° 284° (WNW) 11:04:23 145.826/435.025
COMPASS 1 30 Jun 11:04:58 11:07:20 15° 292° (WNW) 11:09:43 437.405
FUNcube-1 30 Jun 11:05:58 11:10:27 57° 285° (WNW) 11:14:56 145.935
UWE-3 30 Jun 11:15:15 11:19:11 28° 289° (WNW) 11:23:10 435.000/436.395/437.385
NANOSAT C BR1 30 Jun 11:27:44 11:30:56 22° 70° (ENE) 11:34:09 145.865
PCSat 30 Jun 11:30:04 11:35:12 42° 59° (ENE) 11:40:17 145.827
AUBIESAT-1 30 Jun 11:31:23 11:34:48 26° 292° (WNW) 11:38:23 437.475
QB50P1 30 Jun 11:31:35 11:35:02 26° 71° (ENE) 11:38:30 145.935-145.965
TIGRISAT 30 Jun 11:33:21 11:37:26 43° 261° (W) 11:41:36 435.000
POPSAT HIP 1 30 Jun 11:34:53 11:38:26 27° 71° (ENE) 11:42:00 437.405
YUBILEINY 30 Jun 11:36:36 11:39:42 12° 77° (ENE) 11:42:47 435.215
UNISAT 6 30 Jun 11:39:21 11:43:16 34° 262° (W) 11:47:17 437.425
HUMSAT D 30 Jun 11:45:52 11:50:13 85° 280° (W) 11:54:30 437.325/437.525
DUCHIFAT 1 30 Jun 11:46:42 11:50:28 34° 72° (ENE) 11:54:15 145.980
QB50P2 30 Jun 11:47:15 11:51:12 42° 73° (ENE) 11:55:10 145.880/145.840
POLYITAN 1 30 Jun 11:49:52 11:53:49 43° 74° (ENE) 11:57:49 437.675
Cosmos 2491 30 Jun 11:50:27 11:58:34 41° 76° (ENE) 12:06:37 435.465 / 435.565
BEESAT 3 30 Jun 11:52:31 11:56:26 59° 59° (ENE) 12:00:19 437.485
PHONESAT 2.4 30 Jun 11:56:55 11:59:55 51° 208° (SSW) 12:02:54 2401.200-2431.200
DELFI C3 30 Jun 11:58:58 12:02:10 24° 289° (WNW) 12:05:21 145.870
AISAT 30 Jun 12:05:29 12:07:48 14° 93° (E) 12:10:08 437.250
ESTCUBE 1 30 Jun 12:08:15 12:11:59 25° 96° (E) 12:15:40 437.505/2401.250
50 SAT 30 Jun 12:09:03 12:10:58 14° 94° (E) 12:12:53 437.505
DX 1 30 Jun 12:18:36 12:20:53 14° 94° (E) 12:23:10 434.975-435.025
ANTELSAT 30 Jun 12:21:40 12:23:20 12° 268° (W) 12:25:01 437.575/2403.000
BEESAT 2 30 Jun 12:34:15 12:38:14 84° 245° (WSW) 12:42:13 435.950
BUGSAT 1 30 Jun 12:34:16 12:38:10 54° 75° (ENE) 12:42:06 437.445
RS-15 30 Jun 12:40:30 12:51:50 79° 300° (WNW) 13:03:54 29.354- 29.394
CUBEBUG 1 30 Jun 12:45:47 12:49:56 45° 99° (E) 12:54:04 437.445
JAS-2 30 Jun 12:56:14 13:03:44 60° 73° (ENE) 13:10:37 435.910
VELOX 1 30 Jun 12:59:02 13:03:22 58° 101° (E) 13:07:41 145.980
O/OREOS (USA 219) 30 Jun 12:59:44 13:04:09 56° 68° (ENE) 13:08:34 437.305
NANOSAT C BR1 30 Jun 13:03:05 13:06:31 25° 264° (W) 13:09:59 145.865
QB50P1 30 Jun 13:07:34 13:10:44 21° 265° (W) 13:13:56 145.935-145.965
POPSAT HIP 1 30 Jun 13:11:08 13:14:11 19° 265° (W) 13:17:14 437.405
PCSat 30 Jun 13:14:10 13:18:16 22° 254° (WSW) 13:22:22 145.827
Cosmos 2504 30 Jun 13:21:21 13:27:01 21° 80° (E) 13:32:55 435.465 / 435.565
DUCHIFAT 1 30 Jun 13:23:44 13:26:14 15° 266° (W) 13:28:45 145.980
QB50P2 30 Jun 13:25:19 13:27:10 13° 267° (W) 13:29:03 145.880/145.840
YUBILEINY 30 Jun 13:26:17 13:34:59 81° 94° (E) 13:43:45 435.215
SPROUT 30 Jun 13:26:51 13:31:02 51° 100° (E) 13:35:13 437.525
POLYITAN 1 30 Jun 13:28:04 13:29:49 12° 267° (W) 13:31:33 437.675
UKube-1 30 Jun 13:29:10 13:33:30 80° 102° (ESE) 13:37:48 .
AIST 2 30 Jun 13:33:34 13:36:45 21° 52° (NE) 13:39:56 435.215
AISAT 30 Jun 13:40:18 13:44:26 42° 287° (WNW) 13:48:35 437.250
50 SAT 30 Jun 13:41:28 13:44:41 29° 288° (WNW) 13:47:51 437.505
ESTCUBE 1 30 Jun 13:45:01 13:48:40 25° 290° (WNW) 13:52:17 437.505/2401.250
Cosmos 2491 30 Jun 13:47:27 13:55:11 37° 273° (W) 14:02:56 435.465 / 435.565
DX 1 30 Jun 13:53:09 13:57:13 41° 287° (WNW) 14:01:17 434.975-435.025
Oscar 19 30 Jun 14:08:37 14:13:46 88° 73° (ENE) 14:18:56 437.125/150
CUBEBUG 1 30 Jun 14:23:41 14:25:48 14° 294° (WNW) 14:27:56 437.445
SWISSCUBE 30 Jun 14:31:08 14:33:02 12° 92° (E) 14:34:55 437.505
ITAMSAT 1 30 Jun 14:36:54 14:40:58 23° 67° (ENE) 14:45:02 435.822/435.867
VELOX 1 30 Jun 14:38:04 14:39:17 11° 295° (WNW) 14:40:31 145.980
AO-7 30 Jun 14:38:57 14:44:36 21° 56° (NE) 14:50:15 29.400- 29.500
TISAT 1 30 Jun 14:39:32 14:43:46 88° 110° (ESE) 14:47:59 437.305
JUGNU 30 Jun 14:40:20 14:43:11 14° 168° (SSE) 14:46:01 437.505
Gurwin Techsat 1B 30 Jun 14:41:58 14:47:16 78° 76° (ENE) 14:52:35 435.225
O/OREOS (USA 219) 30 Jun 14:42:08 14:42:59 10° 262° (W) 14:43:49 437.305
JAS-2 30 Jun 14:43:01 14:48:53 24° 265° (W) 14:54:28 435.910
ISS 30 Jun 14:54:16 14:56:56 23° 33° (NNE) 14:59:35 145.825
BEESAT 30 Jun 14:54:42 14:58:17 21° 95° (E) 15:01:49 436.000
ITUPSAT 1 30 Jun 14:57:05 15:00:45 22° 95° (E) 15:04:23 437.325
RS-15 30 Jun 14:57:40 15:06:36 24° 326° (NW) 15:15:55 29.354- 29.394
SPROUT 30 Jun 15:04:57 15:06:30 12° 294° (WNW) 15:08:03 437.525
SO-50 30 Jun 15:05:08 15:09:10 26° 111° (ESE) 15:13:12 436.795
Cosmos 2504 30 Jun 15:11:23 15:19:24 69° 279° (W) 15:28:04 435.465 / 435.565
AIST 2 30 Jun 15:11:35 15:15:15 30° 247° (WSW) 15:18:54 435.215
YUBILEINY 30 Jun 15:27:13 15:32:45 18° 293° (WNW) 15:38:20 435.215
SWISSCUBE 30 Jun 16:06:26 16:11:08 57° 286° (WNW) 16:15:48 437.505
ITAMSAT 1 30 Jun 16:15:24 16:20:10 36° 262° (W) 16:24:59 435.822/435.867
AIST 1 30 Jun 16:26:42 16:28:03 11° 85° (E) 16:29:23
Gurwin Techsat 1B 30 Jun 16:27:10 16:27:42 10° 270° (W) 16:28:15 435.225
JUGNU 30 Jun 16:27:29 16:31:28 18° 178° (S) 16:35:27 437.505
AO-7 30 Jun 16:28:02 16:36:22 82° 253° (WSW) 16:44:47 29.400- 29.500
ISS 30 Jun 16:30:29 16:33:23 30° 229° (SW) 16:36:16 145.825
BEESAT 30 Jun 16:31:46 16:36:04 34° 289° (WNW) 16:40:22 436.000
ITUPSAT 1 30 Jun 16:34:18 16:38:35 33° 290° (WNW) 16:42:50 437.325
SO-50 30 Jun 16:45:06 16:49:30 33° 306° (NW) 16:53:54 436.795
KKS-1 30 Jun 16:45:27 16:49:33 35° 98° (E) 16:53:38 437.445
MOZHAYETS 4 30 Jun 16:51:22 16:55:44 39° 99° (E) 17:00:02
HORYU 2 30 Jun 17:05:26 17:09:32 38° 72° (ENE) 17:13:40 437.375
STARS 30 Jun 17:11:39 17:15:41 34° 98° (E) 17:19:42 437.465
Cosmos 2504 30 Jun 17:12:53 17:14:34 11° 299° (WNW) 17:16:16 435.465 / 435.565
RS-15 30 Jun 17:20:32 17:25:52 13° 3° (N) 17:31:14 29.354- 29.394
GONETS M04 30 Jun 17:32:06 17:37:26 18° 80° (E) 17:42:44
CUTE-I 30 Jun 17:35:05 17:37:13 12° 62° (ENE) 17:39:23 437.470
SRMSAT 30 Jun 17:46:33 17:50:11 17° 173° (S) 17:53:49 437.500
Cosmos 2499 30 Jun 17:52:34 17:57:01 16° 78° (ENE) 18:01:34 435.465 / 435.565
NOAA 15 30 Jun 17:53:27 17:57:50 27° 68° (ENE) 18:02:12 137.62
AIST 1 30 Jun 18:01:00 18:05:09 45° 280° (W) 18:09:18
JUGNU 30 Jun 18:16:15 18:19:46 16° 189° (S) 18:23:17 437.505
BRITE-PL 30 Jun 18:18:29 18:23:15 43° 74° (ENE) 18:27:40 437.365/2234.400
KKS-1 30 Jun 18:22:50 18:25:49 18° 293° (WNW) 18:28:48 437.445
CUBESAT XI-V 30 Jun 18:24:54 18:29:19 45° 99° (E) 18:33:43 437.345
AO-7 30 Jun 18:26:48 18:30:07 13° 269° (W) 18:33:29 29.400- 29.500
MOZHAYETS 4 30 Jun 18:29:31 18:32:32 17° 293° (WNW) 18:35:31
Cubesat XI-IV 30 Jun 18:37:48 18:42:58 51° 72° (ENE) 18:48:09 437.490
GOMX 1 30 Jun 18:41:17 18:45:18 30° 73° (ENE) 18:49:08 467.674
LilacSat-2 30 Jun 18:42:46 18:46:24 47° 75° (ENE) 18:50:04 437.200
HORYU 2 30 Jun 18:43:33 18:46:12 16° 266° (W) 18:48:52 437.375
STARS 30 Jun 18:48:45 18:51:45 18° 292° (WNW) 18:54:46 437.465
NOAA 18 30 Jun 18:50:22 18:55:48 77° 75° (ENE) 19:01:18 137.9125
CUTE-I 30 Jun 19:11:14 19:16:34 75° 257° (WSW) 19:21:57 437.470
HO-68 30 Jun 19:20:43 19:25:52 22° 61° (ENE) 19:31:01 435.675
GONETS M04 30 Jun 19:24:27 19:33:09 78° 278° (W) 19:41:53
DOVE 4 30 Jun 19:29:48 19:33:56 45° 74° (ENE) 19:37:56 437.250
NOAA 15 30 Jun 19:32:45 19:37:26 32° 262° (W) 19:42:08 137.62
CUSAT 1 30 Jun 19:32:50 19:35:52 40° 266° (W) 19:38:26 437.405
RS-15 30 Jun 19:34:32 19:44:42 28° 38° (NE) 19:54:48 29.354- 29.394
SRMSAT 30 Jun 19:34:44 19:38:38 18° 183° (S) 19:42:32 437.500
Cosmos 2499 30 Jun 19:40:29 19:48:45 88° 275° (W) 19:57:36 435.465 / 435.565
BRITE-PL 30 Jun 19:58:35 20:01:47 17° 265° (W) 20:04:51 437.365/2234.400
CUBESAT XI-V 30 Jun 20:03:41 20:06:17 15° 294° (WNW) 20:08:52 437.345
CINEMA 3 30 Jun 20:08:49 20:12:30 32° 72° (ENE) 20:16:11 145.822/145.860
COMPASS 1 30 Jun 20:16:38 20:19:24 17° 69° (ENE) 20:22:11 437.405
DANDE 30 Jun 20:16:53 20:20:58 42° 268° (W) 20:24:07 436.750
Cubesat XI-IV 30 Jun 20:19:56 20:23:17 17° 267° (W) 20:26:38 437.490
GOMX 1 30 Jun 20:20:01 20:23:23 20° 264° (W) 20:26:37 467.674
CANX-2 30 Jun 20:22:31 20:26:38 49° 75° (ENE) 20:30:47 2200.000
UWE-3 30 Jun 20:34:54 20:36:31 12° 66° (ENE) 20:38:10 435.000/436.395/437.385
NOAA 18 30 Jun 20:35:41 20:36:58 11° 269° (W) 20:38:16 137.9125
AO-85 30 Jun 20:35:52 20:40:18 26° 110° (ESE) 20:44:41 145.980
STRAND 1 30 Jun 20:41:04 20:46:15 78° 103° (ESE) 20:51:22 437.568
SEEDS 30 Jun 20:41:41 20:45:47 50° 75° (ENE) 20:49:55 437.485
CUTE 1.7 + AOD 2 30 Jun 20:41:54 20:46:09 74° 77° (ENE) 20:50:27 437.475
AUBIESAT-1 30 Jun 20:42:29 20:43:49 12° 63° (ENE) 20:45:09 437.475
HO-68 30 Jun 21:05:50 21:12:55 65° 257° (WSW) 21:20:04 435.675
DOVE 4 30 Jun 21:10:17 21:11:48 12° 267° (W) 21:13:19 437.250
AAUSAT CUBESAT 2 30 Jun 21:13:55 21:18:04 67° 76° (ENE) 21:22:15 437.432
M-CUBED/EXP-1 PRIME 30 Jun 21:21:53 21:25:04 56° 71° (ENE) 21:28:17 437.505
SRMSAT 30 Jun 21:24:39 21:27:04 12° 193° (SSW) 21:29:27 437.500
CUBEBUG 2 30 Jun 21:26:03 21:30:12 77° 76° (ENE) 21:34:28 437.445
GONETS M04 30 Jun 21:28:01 21:31:24 13° 296° (WNW) 21:34:47
Cosmos 2499 30 Jun 21:38:22 21:43:09 16° 295° (WNW) 21:48:05 435.465 / 435.565
ZACube-1 30 Jun 21:41:51 21:45:53 48° 74° (ENE) 21:50:02 437.345
RS-15 30 Jun 21:46:35 21:59:01 90° 68° (ENE) 22:11:13 29.354- 29.394
Oscar 11 30 Jun 21:46:48 21:51:04 62° 76° (ENE) 21:55:23 145.826/435.025
CINEMA 3 30 Jun 21:47:12 21:49:43 16° 266° (W) 21:52:14 145.822/145.860
COMPASS 1 30 Jun 21:50:53 21:54:40 32° 263° (W) 21:58:29 437.405
FUNcube-1 30 Jun 21:57:55 22:02:04 72° 77° (ENE) 22:06:22 145.935
PRISM 30 Jun 22:00:30 22:04:35 86° 104° (ESE) 22:08:38 437.425
CANX-2 30 Jun 22:01:21 22:02:43 11° 268° (W) 22:04:06 2200.000
UWE-3 30 Jun 22:08:28 22:12:30 48° 261° (W) 22:16:38 435.000/436.395/437.385
AUBIESAT-1 30 Jun 22:15:12 22:18:03 27° 257° (WSW) 22:20:56 437.475
AO-85 30 Jun 22:15:32 22:20:37 39° 304° (NW) 22:25:34 145.980
SEEDS 30 Jun 22:20:37 22:21:44 11° 268° (W) 22:22:51 437.485
STRAND 1 30 Jun 22:23:16 22:24:41 11° 298° (WNW) 22:26:07 437.568
HUMSAT D 30 Jun 22:33:44 22:37:38 40° 73° (ENE) 22:41:37 437.325/437.525
ANTELSAT 30 Jun 22:38:30 22:40:57 14° 93° (E) 22:43:25 437.575/2403.000
DELFI C3 30 Jun 22:40:29 22:44:29 67° 260° (W) 22:48:30 145.870
ESTCUBE 1 30 Jun 23:05:23 23:08:16 17° 67° (ENE) 23:11:09 437.505/2401.250
ZACube-1 30 Jun 23:21:14 23:22:27 11° 269° (W) 23:23:42 437.345
TIGRISAT 30 Jun 23:27:36 23:32:07 48° 99° (E) 23:36:40 435.000
UNISAT 6 30 Jun 23:33:31 23:38:10 60° 101° (E) 23:42:48 437.425
CUBEBUG 1 30 Jun 23:38:53 23:42:26 25° 70° (ENE) 23:46:00 437.445
YUBILEINY 30 Jun 23:41:06 23:48:57 34° 74° (ENE) 23:56:46 435.215
SO-50 30 Jun 23:41:19 23:42:47 11° 44° (NE) 23:44:13 436.795
VELOX 1 30 Jun 23:53:10 23:57:08 34° 72° (ENE) 00:01:06 145.980
RS-15 01 Jul 00:01:45 00:09:49 21° 261° (W) 00:17:50 29.354- 29.394
HUMSAT D 01 Jul 00:11:27 00:13:25 13° 267° (W) 00:15:26 437.325/437.525
ANTELSAT 01 Jul 00:13:21 00:17:51 48° 286° (WNW) 00:22:23 437.575/2403.000
50 SAT 01 Jul 00:15:16 00:18:56 69° 77° (ENE) 00:22:39 437.505
SPROUT 01 Jul 00:17:34 00:21:04 25° 71° (ENE) 00:24:34 437.525
UKube-1 01 Jul 00:20:21 00:24:25 42° 73° (ENE) 00:28:29 .
BUGSAT 1 01 Jul 00:22:22 00:22:40 10° 92° (E) 00:22:57 437.445
AISAT 01 Jul 00:33:51 00:38:14 74° 258° (WSW) 00:42:38 437.250
ESTCUBE 1 01 Jul 00:40:28 00:44:43 39° 261° (W) 00:48:59 437.505/2401.250
DX 1 01 Jul 00:44:48 00:49:08 75° 257° (WSW) 00:53:29 434.975-435.025
Cosmos 2491 01 Jul 00:47:02 00:55:27 53° 90° (E) 01:03:50 435.465 / 435.565
NANOSAT C BR1 01 Jul 00:49:44 00:53:58 64° 101° (E) 00:58:11 145.865
QB50P1 01 Jul 00:54:13 00:58:29 77° 103° (ESE) 01:02:45 145.935-145.965
POPSAT HIP 1 01 Jul 00:57:41 01:01:58 84° 104° (ESE) 01:06:14 437.405
TIGRISAT 01 Jul 01:05:43 01:08:22 15° 294° (WNW) 01:11:02 435.000
Cosmos 2504 01 Jul 01:08:26 01:16:35 40° 75° (ENE) 01:24:19 435.465 / 435.565
DUCHIFAT 1 01 Jul 01:09:02 01:13:16 79° 284° (WNW) 01:17:31 145.980
QB50P2 01 Jul 01:10:44 01:14:57 62° 285° (WNW) 01:19:11 145.880/145.840
UNISAT 6 01 Jul 01:12:27 01:14:19 12° 295° (WNW) 01:16:11 437.425
POLYITAN 1 01 Jul 01:13:22 01:17:36 61° 284° (WNW) 01:21:49 437.675
CUBEBUG 1 01 Jul 01:15:08 01:18:37 23° 264° (W) 01:22:07 437.445
SO-50 01 Jul 01:19:16 01:23:55 86° 242° (WSW) 01:28:24 436.795
TISAT 1 01 Jul 01:27:54 01:31:48 40° 73° (ENE) 01:35:41 437.305
VELOX 1 01 Jul 01:30:40 01:33:39 18° 265° (W) 01:36:37 145.980
SWISSCUBE 01 Jul 01:35:53 01:36:52 11° 63° (ENE) 01:37:50 437.505
YUBILEINY 01 Jul 01:37:34 01:45:50 46° 271° (W) 01:54:05 435.215
BEESAT 3 01 Jul 01:40:43 01:43:45 22° 111° (ESE) 01:46:47 437.485
SPROUT 01 Jul 01:53:40 01:56:56 22° 265° (W) 02:00:14 437.525
BUGSAT 1 01 Jul 01:54:16 01:58:16 51° 286° (WNW) 02:02:18 437.445
JAS-2 01 Jul 01:55:21 02:00:45 62° 101° (E) 02:05:51 435.910
UKube-1 01 Jul 01:58:29 02:00:37 13° 267° (W) 02:02:45 .
BEESAT 01 Jul 01:58:31 02:01:37 17° 66° (ENE) 02:04:44 436.000
ITUPSAT 1 01 Jul 02:01:10 02:04:24 18° 67° (ENE) 02:07:39 437.325
PCSat 01 Jul 02:07:55 02:13:19 76° 114° (ESE) 02:18:45 145.827
BEESAT 2 01 Jul 02:23:08 02:26:46 36° 113° (ESE) 02:30:25 435.950
Oscar 19 01 Jul 02:23:42 02:28:31 40° 99° (E) 02:33:18 437.125/150
Cosmos 2491 01 Jul 02:45:14 02:52:33 29° 287° (WNW) 02:59:55 435.465 / 435.565
Gurwin Techsat 1B 01 Jul 03:01:46 03:06:46 40° 99° (E) 03:11:43 435.225
Cosmos 2504 01 Jul 03:01:53 03:09:51 40° 273° (W) 03:17:27 435.465 / 435.565
TISAT 1 01 Jul 03:05:37 03:07:35 13° 267° (W) 03:09:33 437.305
O/OREOS (USA 219) 01 Jul 03:08:32 03:12:58 63° 291° (WNW) 03:17:26 437.305
SWISSCUBE 01 Jul 03:09:13 03:13:59 73° 258° (WSW) 03:18:48 437.505
BEESAT 3 01 Jul 03:18:00 03:21:17 25° 306° (NW) 03:24:34 437.485
BEESAT 01 Jul 03:34:30 03:39:01 43° 261° (W) 03:43:35 436.000
ITUPSAT 1 01 Jul 03:37:23 03:41:53 41° 261° (W) 03:46:26 437.325
KKS-1 01 Jul 03:40:48 03:44:13 22° 69° (ENE) 03:47:39 437.445
JAS-2 01 Jul 03:42:36 03:45:09 14° 299° (WNW) 03:47:39 435.910
MOZHAYETS 4 01 Jul 03:50:14 03:54:03 26° 70° (ENE) 03:57:54
PCSat 01 Jul 03:54:17 03:57:17 15° 311° (NW) 04:00:19 145.827
BEESAT 2 01 Jul 04:02:06 04:04:43 17° 310° (NW) 04:07:20 435.950
Oscar 19 01 Jul 04:03:47 04:07:32 21° 293° (WNW) 04:11:16 437.125/150
STARS 01 Jul 04:05:44 04:08:57 21° 69° (ENE) 04:12:11 437.465
AIST 1 01 Jul 04:11:32 04:15:14 28° 78° (ENE) 04:18:54
ITAMSAT 1 01 Jul 04:31:03 04:36:18 79° 285° (WNW) 04:41:30 435.822/435.867
AO-7 01 Jul 04:33:44 04:41:35 42° 100° (E) 04:49:20 29.400- 29.500
Gurwin Techsat 1B 01 Jul 04:42:23 04:46:24 22° 293° (WNW) 04:50:24 435.225
AIST 2 01 Jul 05:05:17 05:09:21 67° 301° (WNW) 05:13:28 435.215
KKS-1 01 Jul 05:16:52 05:20:37 27° 263° (W) 05:24:23 437.445
CUBESAT XI-V 01 Jul 05:24:58 05:29:05 31° 71° (ENE) 05:33:12 437.345
MOZHAYETS 4 01 Jul 05:27:17 05:31:05 25° 264° (W) 05:34:57
Cosmos 2499 01 Jul 05:37:05 05:44:21 29° 71° (ENE) 05:51:12 435.465 / 435.565
GONETS M04 01 Jul 05:38:59 05:47:16 45° 77° (ENE) 05:55:33
STARS 01 Jul 05:41:19 05:45:06 29° 263° (W) 05:48:54 437.465
AIST 1 01 Jul 05:49:42 05:52:34 18° 272° (W) 05:55:26
PHONESAT 2.4 01 Jul 06:02:13 06:05:15 64° 154° (SSE) 06:08:18 2401.200-2431.200
NOAA 15 01 Jul 06:13:31 06:15:36 12° 92° (E) 06:17:39 137.62
AO-7 01 Jul 06:26:37 06:34:10 39° 297° (WNW) 06:41:42 29.400- 29.500
BRITE-PL 01 Jul 06:27:39 06:29:57 14° 94° (E) 06:32:16 437.365/2234.400
HORYU 2 01 Jul 06:35:36 06:40:03 65° 285° (WNW) 06:44:29 437.375
CUSAT 1 01 Jul 06:47:01 06:53:03 26° 90° (E) 06:58:25 437.405
GOMX 1 01 Jul 06:48:20 06:48:57 10° 93° (E) 06:49:33 467.674
AO-85 01 Jul 06:50:51 06:55:17 80° 62° (ENE) 06:59:19 145.980
Cubesat XI-IV 01 Jul 06:58:52 07:03:24 27° 96° (E) 07:07:53 437.490
CUBESAT XI-V 01 Jul 07:02:49 07:06:25 22° 265° (W) 07:10:04 437.345
NOAA 18 01 Jul 07:15:55 07:21:12 43° 100° (E) 07:26:27 137.9125
ISS 01 Jul 07:31:06 07:34:07 36° 132° (SE) 07:37:09 145.825
DOVE 4 01 Jul 07:32:10 07:34:59 16° 95° (E) 07:37:53 437.250
